Regional Weather Roundup
Issued by NWS

Home | Current Version | Previous Version | Text Only | Print | Product List | Glossary Off
Versions: 1 2 3 4 5 6 7 8 9 10 11 12 13 14 15 16 17 18 19 20 21 22 23 24 25 26 27 28 29 30 31 32 33 34 35 36 37 38 39 40 41 42 43 44 45 46 47 48 49 50

000
ASUS43 KOAX 230510
RWRNE

WEATHER ROUNDUP FOR NEBRASKA
NATIONAL WEATHER SERVICE OMAHA NE
1200 AM CDT THU OCT 23 2014

NOTES: SATELLITE DATA IS BEING USED TO AUGMENT CLOUD COVER ABOVE
       12000 FEET.
       "FAIR" INDICATES FEW OR NO CLOUDS BELOW 12,000 FEET WITH NO
       SIGNIFICANT WEATHER AND/OR OBSTRUCTIONS TO VISIBILITY.

  * THESE STATIONS DO NOT REPORT WEATHER SUCH AS RAIN...SNOW OR FOG.

NEZ001>004-019>022-054>056-230600-
NEBRASKA PANHANDLE

CITY           SKY/WX    TMP DP  RH WIND       PRES   REMARKS
SCOTTSBLUFF    CLEAR     42  29  59 E3        30.10S
ALLIANCE       CLEAR     35  27  72 CALM      30.08F
CHADRON        CLEAR     38  31  76 CALM      30.06R
KIMBALL        CLEAR     42  37  79 SW5       30.13R
SIDNEY         CLOUDY    48  38  68 SW8       30.12S
$$

NEZ057>060-069>072-079>082-230600-
SOUTHWEST NEBRASKA

CITY           SKY/WX    TMP DP  RH WIND       PRES   REMARKS
NORTH PLATTE   PTCLDY    45  44  97 E3        30.07F FOG
IMPERIAL       CLEAR     47  33  58 CALM      30.09S
LEXINGTON      FOG       46  45  96 CALM      30.07S VSB 1/2
MCCOOK         CLEAR     48  45  89 CALM      30.07S
OGALLALA       PTCLDY    41  35  78 CALM      30.08F
$$

NEZ005>010-023>029-035>040-094-230600-
NORTH CENTRAL NEBRASKA

CITY           SKY/WX    TMP DP  RH WIND       PRES   REMARKS
VALENTINE      CLEAR     43  38  82 SW3       30.05S
AINSWORTH      CLEAR     41  38  91 S5        30.05S
BROKEN BOW     FOG       45  43  93 CALM      30.06F VSB 3/4
O`NEILL        FOG       43  43 100 CALM      30.05S VSB 1/2
ORD            FOG       42  41  96 CALM      30.05S VSB 1/4
THEDFORD       CLEAR     45  43  93 CALM      30.08S
$$

NEZ041-046>049-061>064-073>077-083>087-230600-
SOUTH CENTRAL NEBRASKA

CITY           SKY/WX    TMP DP  RH WIND       PRES   REMARKS
GRAND ISLAND   CLOUDY    59  57  93 NW3       30.05S FOG
AURORA         CLOUDY    59  59 100 CALM      30.05S FOG
HASTINGS       FOG       56  54  93 CALM      30.05R VSB 1/4
HEBRON         MOCLDY    61  57  88 S3        30.05S
HOLDREGE       FOG       49  48  96 CALM      30.06S VSB<1/4
KEARNEY *      CLOUDY    50  48  93 CALM      30.07S VSB<1/4
YORK           MOCLDY    57  57 100 SW5       30.04S
$$

NEZ011>018-030>034-042>045-230600-
NORTHEAST NEBRASKA

CITY           SKY/WX    TMP DP  RH WIND       PRES   REMARKS
NORFOLK        CLOUDY    55  54  96 W3        30.03F
ALBION         FOG       49  48  94 CALM      30.05S VSB 1/4
BLAIR          CLOUDY    63  60  91 S9        30.03F
COLUMBUS *     CLOUDY    61  57  88 W5        30.05S
FREMONT        CLOUDY    63  60  88 S12       30.02F
TEKAMAH        CLOUDY    63  60  90 SE6       30.02S
WAYNE          CLOUDY    57  56  96 CALM      30.03F
$$

NEZ050>053-065>068-078-088>093-230600-
SOUTHEAST NEBRASKA

CITY           SKY/WX    TMP DP  RH WIND       PRES   REMARKS
LINCOLN        CLOUDY    62  58  86 S14       30.03F
OMAHA EPPLEY   CLOUDY    63  60  90 SE10      30.04F
BEATRICE       CLOUDY    61  59  94 S8        30.06F
FALLS CITY     LGT RAIN  63  59  87 CALM      30.09R
NEBRASKA CITY  RAIN      61  61 100 SW10      30.06F
PLATTSMOUTH    CLOUDY    61  60  94 SE5       30.06F FOG
$$

NEZ044-045-051>053-067-230600-
OMAHA AREA

CITY           SKY/WX    TMP DP  RH WIND       PRES   REMARKS
OMAHA EPPLEY   CLOUDY    63  60  90 SE10      30.04F
BLAIR          CLOUDY    63  60  91 S9        30.03F
FREMONT        CLOUDY    63  60  88 S12       30.02F
MILLARD        CLOUDY    63  60  90 S7        30.04F
OFFUTT AFB     CLOUDY    63  63 100 S10       30.04F
PLATTSMOUTH    CLOUDY    61  60  94 SE5       30.06F FOG
WAHOO          CLOUDY    62  58  86 S9        30.02F
$$



USA.gov is the U.S. government's official web portal to all federal, state and local government web resources and services.